Location: San Antonio
(29.4240°N, 98.4930°W)
Time: 11:10:37
(UTC-06:00)

Transit 4A - Pass Details

Date: 18 December 2025
Orbit: 867 x 974 km, 66.8° (Epoch: 17 January)

Event Time Altitude Azimuth Distance (km) Brightness Sun altitude
Rises 18:43:31 0° 236° (SW) 3,445 12.5 -13.8°
Reaches altitude 10° 18:46:27 10° 250° (WSW) 2,504 11.6 -14.4°
Maximum altitude 18:51:03 24° 303° (WNW) 1,707 9.7 -15.4°
Drops below altitude 10° 18:55:42 10° 356° (N) 2,517 10.0 -16.3°
Sets 18:58:41 0° 10° (N) 3,467 10.6 -17.0°
Enters shadow 18:58:46 - 11° (N) 3,497 10.6 -17.0°
